Time,TemperatureF,DewpointF,PressureIn,WindDirection,WindDirectionDegrees,WindSpeedMPH,WindSpeedGustMPH,Humidity,HourlyPrecipIn,Conditions,Clouds,dailyrainin,SoftwareType,DateUTC
2013-08-19 00:00:00,71.6,68.2,30.22,NW,315,0.0,1.1,89,0.00,,,0.00,WUHU216HW,2013-08-19 04:00:00,
2013-08-19 00:01:00,71.6,68.2,30.22,NW,315,0.0,1.1,89,0.00,,,0.00,WUHU216HW,2013-08-19 04:01:00,
2013-08-19 00:06:00,71.6,68.6,30.22,North,0,0.7,1.3,90,0.02,,,0.02,WUHU216HW,2013-08-19 04:06:00,
2013-08-19 00:11:00,71.5,68.4,30.21,NNW,338,0.9,2.2,90,0.02,,,0.02,WUHU216HW,2013-08-19 04:11:00,
2013-08-19 00:16:00,71.5,68.4,30.21,North,0,0.7,2.2,90,0.02,,,0.02,WUHU216HW,2013-08-19 04:16:00,
2013-08-19 00:21:00,71.5,68.0,30.21,North,0,0.4,1.1,89,0.03,,,0.03,WUHU216HW,2013-08-19 04:21:00,
2013-08-19 00:26:00,71.5,68.4,30.21,ENE,68,0.4,1.1,90,0.03,,,0.03,WUHU216HW,2013-08-19 04:26:00,
2013-08-19 00:31:00,71.5,68.4,30.21,NNW,338,0.2,1.1,90,0.03,,,0.03,WUHU216HW,2013-08-19 04:31:00,
2013-08-19 00:36:00,71.5,68.4,30.21,NNE,23,0.4,1.6,90,0.03,,,0.03,WUHU216HW,2013-08-19 04:36:00,
2013-08-19 00:41:00,71.5,68.4,30.21,North,0,1.3,1.6,90,0.03,,,0.03,WUHU216HW,2013-08-19 04:41:00,
2013-08-19 00:46:00,71.5,68.4,30.21,NNE,23,0.2,1.6,90,0.03,,,0.03,WUHU216HW,2013-08-19 04:46:00,
2013-08-19 00:51:00,71.3,68.2,30.21,NNW,338,0.4,2.5,90,0.03,,,0.03,WUHU216HW,2013-08-19 04:51:00,
2013-08-19 00:56:00,71.3,68.2,30.21,NNW,338,0.0,2.5,90,0.03,,,0.03,WUHU216HW,2013-08-19 04:56:00,
2013-08-19 01:01:00,71.3,68.2,30.21,NNW,338,0.9,2.0,90,0.03,,,0.03,WUHU216HW,2013-08-19 05:01:00,
2013-08-19 01:06:00,71.3,68.2,30.21,North,0,0.9,2.0,90,0.01,,,0.03,WUHU216HW,2013-08-19 05:06:00,
2013-08-19 01:11:00,71.3,68.2,30.21,North,0,0.0,1.8,90,0.01,,,0.03,WUHU216HW,2013-08-19 05:11:00,
2013-08-19 01:16:00,71.3,68.2,30.21,North,0,0.7,1.8,90,0.01,,,0.03,WUHU216HW,2013-08-19 05:16:00,
2013-08-19 01:21:00,71.3,68.2,30.21,North,0,1.1,2.2,90,0.00,,,0.03,WUHU216HW,2013-08-19 05:21:00,
2013-08-19 01:26:00,71.3,68.2,30.21,North,0,0.4,2.2,90,0.00,,,0.03,WUHU216HW,2013-08-19 05:26:00,
2013-08-19 01:31:00,71.1,68.0,30.21,North,0,0.9,1.6,90,0.00,,,0.03,WUHU216HW,2013-08-19 05:31:00,
2013-08-19 01:36:00,71.1,68.3,30.20,NW,315,0.7,1.8,91,0.00,,,0.03,WUHU216HW,2013-08-19 05:36:00,
2013-08-19 01:41:00,71.1,68.3,30.20,NNW,338,0.4,2.2,91,0.00,,,0.03,WUHU216HW,2013-08-19 05:41:00,
2013-08-19 01:46:00,71.1,68.3,30.20,ENE,68,0.7,2.2,91,0.00,,,0.03,WUHU216HW,2013-08-19 05:46:00,
2013-08-19 01:51:00,71.1,68.3,30.20,North,0,1.1,2.5,91,0.00,,,0.03,WUHU216HW,2013-08-19 05:51:00,
2013-08-19 01:56:00,71.1,68.3,30.20,NE,45,0.9,2.5,91,0.00,,,0.03,WUHU216HW,2013-08-19 05:56:00,
2013-08-19 02:01:00,71.1,68.3,30.20,NE,45,0.2,2.0,91,0.00,,,0.03,WUHU216HW,2013-08-19 06:01:00,
2013-08-19 02:06:00,71.1,68.3,30.20,NE,45,0.7,1.8,91,0.00,,,0.03,WUHU216HW,2013-08-19 06:06:00,
2013-08-19 02:11:00,71.3,68.5,30.20,WSW,248,0.9,1.8,91,0.00,,,0.03,WUHU216HW,2013-08-19 06:11:00,
2013-08-19 02:16:00,71.3,68.5,30.19,NNW,338,1.1,2.5,91,0.00,,,0.03,WUHU216HW,2013-08-19 06:16:00,
2013-08-19 02:21:00,71.3,68.5,30.19,NW,315,0.7,3.1,91,0.00,,,0.03,WUHU216HW,2013-08-19 06:21:00,
2013-08-19 02:26:00,71.3,68.5,30.19,NW,315,1.1,3.1,91,0.00,,,0.03,WUHU216HW,2013-08-19 06:26:00,
2013-08-19 02:31:00,71.3,68.5,30.19,WNW,293,0.0,1.8,91,0.01,,,0.04,WUHU216HW,2013-08-19 06:31:00,
2013-08-19 02:36:00,71.3,68.5,30.19,North,0,0.2,2.2,91,0.02,,,0.05,WUHU216HW,2013-08-19 06:36:00,
2013-08-19 02:41:00,71.5,68.7,30.18,NE,45,1.1,2.2,91,0.04,,,0.07,WUHU216HW,2013-08-19 06:41:00,
2013-08-19 02:46:00,71.3,68.5,30.18,WNW,293,2.5,3.6,91,0.04,,,0.07,WUHU216HW,2013-08-19 06:46:00,
2013-08-19 02:51:00,71.3,68.5,30.17,North,0,1.8,3.6,91,0.04,,,0.07,WUHU216HW,2013-08-19 06:51:00,
2013-08-19 02:56:00,71.3,68.5,30.17,North,0,1.1,4.5,91,0.04,,,0.07,WUHU216HW,2013-08-19 06:56:00,
2013-08-19 03:01:00,71.1,68.3,30.17,North,0,2.7,4.5,91,0.06,,,0.09,WUHU216HW,2013-08-19 07:01:00,
2013-08-19 03:06:00,71.1,68.3,30.17,North,0,3.4,5.4,91,0.06,,,0.09,WUHU216HW,2013-08-19 07:06:00,
2013-08-19 03:11:00,71.1,68.3,30.17,ENE,68,1.1,5.4,91,0.06,,,0.09,WUHU216HW,2013-08-19 07:11:00,
2013-08-19 03:16:00,70.9,68.1,30.17,NNW,338,4.7,4.7,91,0.06,,,0.09,WUHU216HW,2013-08-19 07:16:00,
2013-08-19 03:21:00,70.9,68.1,30.17,North,0,1.8,4.7,91,0.06,,,0.09,WUHU216HW,2013-08-19 07:21:00,
2013-08-19 03:26:00,70.9,68.1,30.17,North,0,1.6,4.7,91,0.06,,,0.09,WUHU216HW,2013-08-19 07:26:00,
2013-08-19 03:31:00,70.9,68.1,30.16,ENE,68,0.4,3.1,91,0.05,,,0.09,WUHU216HW,2013-08-19 07:31:00,
2013-08-19 03:36:00,70.9,68.1,30.16,ENE,68,0.7,3.1,91,0.04,,,0.09,WUHU216HW,2013-08-19 07:36:00,
2013-08-19 03:41:00,70.9,68.1,30.16,ESE,113,2.2,3.8,91,0.03,,,0.10,WUHU216HW,2013-08-19 07:41:00,
2013-08-19 03:46:00,70.9,68.1,30.15,NNW,338,2.9,3.8,91,0.03,,,0.10,WUHU216HW,2013-08-19 07:46:00,
2013-08-19 03:51:00,70.7,68.0,30.16,WSW,248,1.1,4.0,91,0.03,,,0.10,WUHU216HW,2013-08-19 07:51:00,
2013-08-19 03:56:00,70.7,68.0,30.16,NNW,338,0.7,4.0,91,0.03,,,0.10,WUHU216HW,2013-08-19 07:56:00,
2013-08-19 04:01:00,70.9,68.1,30.16,East,90,0.9,2.5,91,0.01,,,0.10,WUHU216HW,2013-08-19 08:01:00,
2013-08-19 04:06:00,70.7,68.0,30.16,East,90,0.4,2.5,91,0.01,,,0.10,WUHU216HW,2013-08-19 08:06:00,
2013-08-19 04:11:00,70.7,68.0,30.16,NW,315,0.4,2.5,91,0.01,,,0.10,WUHU216HW,2013-08-19 08:11:00,
2013-08-19 04:16:00,70.7,68.0,30.16,NNE,23,0.4,2.5,91,0.01,,,0.10,WUHU216HW,2013-08-19 08:16:00,
2013-08-19 04:21:00,70.7,68.0,30.16,North,0,2.0,2.0,91,0.01,,,0.10,WUHU216HW,2013-08-19 08:21:00,
2013-08-19 04:26:00,70.7,68.0,30.15,North,0,0.9,2.2,91,0.01,,,0.10,WUHU216HW,2013-08-19 08:26:00,
2013-08-19 04:31:00,70.7,68.0,30.16,North,0,1.8,2.2,91,0.01,,,0.10,WUHU216HW,2013-08-19 08:31:00,
2013-08-19 04:36:00,70.6,67.8,30.15,NNE,23,0.7,2.0,91,0.01,,,0.10,WUHU216HW,2013-08-19 08:36:00,
2013-08-19 04:41:00,70.7,68.0,30.15,ENE,68,2.9,2.9,91,0.00,,,0.10,WUHU216HW,2013-08-19 08:41:00,
2013-08-19 04:46:00,70.7,68.0,30.15,SSE,158,1.3,4.0,91,0.00,,,0.10,WUHU216HW,2013-08-19 08:46:00,
2013-08-19 04:51:00,70.6,67.8,30.15,NNW,338,0.9,4.0,91,0.00,,,0.10,WUHU216HW,2013-08-19 08:51:00,
2013-08-19 04:56:00,70.6,67.8,30.15,SE,135,0.7,4.0,91,0.00,,,0.10,WUHU216HW,2013-08-19 08:56:00,
2013-08-19 05:01:00,70.6,67.8,30.15,ENE,68,1.3,2.0,91,0.00,,,0.10,WUHU216HW,2013-08-19 09:01:00,
2013-08-19 05:06:00,70.6,67.8,30.15,East,90,0.2,2.2,91,0.00,,,0.10,WUHU216HW,2013-08-19 09:06:00,
2013-08-19 05:11:00,70.6,67.8,30.15,NE,45,0.0,3.8,91,0.00,,,0.10,WUHU216HW,2013-08-19 09:11:00,
2013-08-19 05:16:00,70.6,67.8,30.15,SW,225,0.0,3.8,91,0.00,,,0.10,WUHU216HW,2013-08-19 09:16:00,
2013-08-19 05:21:00,70.6,67.8,30.15,East,90,2.0,2.0,91,0.00,,,0.10,WUHU216HW,2013-08-19 09:21:00,
2013-08-19 05:26:00,70.6,67.8,30.15,NNE,23,0.2,4.9,91,0.00,,,0.10,WUHU216HW,2013-08-19 09:26:00,
2013-08-19 05:31:00,70.6,67.8,30.15,NW,315,0.9,4.9,91,0.00,,,0.10,WUHU216HW,2013-08-19 09:31:00,
2013-08-19 05:36:00,70.4,67.6,30.15,West,270,0.0,2.0,91,0.00,,,0.10,WUHU216HW,2013-08-19 09:36:00,
2013-08-19 05:41:00,70.4,67.6,30.15,NNW,338,1.1,2.0,91,0.00,,,0.10,WUHU216HW,2013-08-19 09:41:00,
2013-08-19 05:46:00,70.4,67.6,30.15,North,0,0.0,2.2,91,0.00,,,0.10,WUHU216HW,2013-08-19 09:46:00,
2013-08-19 05:51:00,70.4,67.6,30.15,East,90,1.8,2.2,91,0.00,,,0.10,WUHU216HW,2013-08-19 09:51:00,
2013-08-19 05:56:00,70.4,67.6,30.15,NE,45,0.4,1.8,91,0.00,,,0.10,WUHU216HW,2013-08-19 09:56:00,
2013-08-19 06:01:00,70.4,67.6,30.15,ESE,113,0.7,3.8,91,0.01,,,0.11,WUHU216HW,2013-08-19 10:01:00,
2013-08-19 06:06:00,70.4,67.6,30.15,North,0,0.2,3.8,91,0.01,,,0.11,WUHU216HW,2013-08-19 10:06:00,
2013-08-19 06:11:00,70.4,67.6,30.15,ENE,68,0.9,3.4,91,0.01,,,0.11,WUHU216HW,2013-08-19 10:11:00,
2013-08-19 06:16:00,70.2,67.4,30.15,NNW,338,0.9,4.0,91,0.01,,,0.11,WUHU216HW,2013-08-19 10:16:00,
2013-08-19 06:21:00,70.2,67.4,30.15,NNE,23,0.0,4.0,91,0.01,,,0.11,WUHU216HW,2013-08-19 10:21:00,
2013-08-19 06:26:00,70.4,67.6,30.15,ESE,113,0.4,2.7,91,0.01,,,0.11,WUHU216HW,2013-08-19 10:26:00,
2013-08-19 06:31:00,70.4,67.6,30.16,ESE,113,0.4,2.7,91,0.01,,,0.11,WUHU216HW,2013-08-19 10:31:00,
2013-08-19 06:36:00,70.4,67.6,30.15,East,90,1.1,2.2,91,0.01,,,0.11,WUHU216HW,2013-08-19 10:36:00,
2013-08-19 06:41:00,70.2,67.4,30.15,ENE,68,0.0,2.2,91,0.01,,,0.11,WUHU216HW,2013-08-19 10:41:00,
2013-08-19 06:46:00,70.4,67.6,30.16,NNE,23,0.4,2.9,91,0.01,,,0.11,WUHU216HW,2013-08-19 10:46:00,
2013-08-19 06:51:00,70.4,67.6,30.16,ESE,113,0.7,2.9,91,0.01,,,0.11,WUHU216HW,2013-08-19 10:51:00,
2013-08-19 06:56:00,70.4,67.6,30.15,East,90,0.4,2.7,91,0.01,,,0.11,WUHU216HW,2013-08-19 10:56:00,
2013-08-19 07:01:00,70.4,67.6,30.15,ESE,113,0.7,2.7,91,0.00,,,0.11,WUHU216HW,2013-08-19 11:01:00,
2013-08-19 07:06:00,70.4,67.6,30.15,East,90,0.7,2.9,91,0.00,,,0.11,WUHU216HW,2013-08-19 11:06:00,
2013-08-19 07:11:00,70.4,67.6,30.15,ENE,68,0.2,2.9,91,0.00,,,0.11,WUHU216HW,2013-08-19 11:11:00,
2013-08-19 07:16:00,70.4,67.6,30.15,ESE,113,1.1,3.4,91,0.00,,,0.11,WUHU216HW,2013-08-19 11:16:00,
2013-08-19 07:21:00,70.4,67.6,30.16,NNW,338,0.4,3.4,91,0.00,,,0.11,WUHU216HW,2013-08-19 11:21:00,
2013-08-19 07:26:00,70.4,67.6,30.16,East,90,0.4,1.6,91,0.00,,,0.11,WUHU216HW,2013-08-19 11:26:00,
2013-08-19 07:31:00,70.6,67.8,30.16,North,0,0.7,1.8,91,0.00,,,0.11,WUHU216HW,2013-08-19 11:31:00,
2013-08-19 07:36:00,70.6,68.1,30.16,ENE,68,1.8,2.2,92,0.00,,,0.11,WUHU216HW,2013-08-19 11:36:00,
2013-08-19 07:41:00,70.6,67.8,30.16,ENE,68,0.2,2.2,91,0.00,,,0.11,WUHU216HW,2013-08-19 11:41:00,
2013-08-19 07:46:00,70.7,68.0,30.16,East,90,1.6,2.7,91,0.00,,,0.11,WUHU216HW,2013-08-19 11:46:00,
2013-08-19 07:51:00,70.7,68.0,30.16,SE,135,0.4,4.0,91,0.00,,,0.11,WUHU216HW,2013-08-19 11:51:00,
2013-08-19 07:56:00,70.7,68.0,30.16,NNE,23,0.0,4.0,91,0.00,,,0.11,WUHU216HW,2013-08-19 11:56:00,
2013-08-19 08:01:00,70.7,68.0,30.16,North,0,0.0,3.1,91,0.00,,,0.11,WUHU216HW,2013-08-19 12:01:00,
2013-08-19 08:06:00,70.7,68.0,30.16,NE,45,0.0,3.1,91,0.00,,,0.11,WUHU216HW,2013-08-19 12:06:00,
2013-08-19 08:11:00,70.9,68.1,30.16,East,90,0.4,2.7,91,0.00,,,0.11,WUHU216HW,2013-08-19 12:11:00,
2013-08-19 08:16:00,70.9,68.1,30.17,SE,135,0.7,4.3,91,0.00,,,0.11,WUHU216HW,2013-08-19 12:16:00,
2013-08-19 08:21:00,71.1,68.3,30.16,ENE,68,0.2,4.3,91,0.00,,,0.11,WUHU216HW,2013-08-19 12:21:00,
2013-08-19 08:26:00,71.3,68.5,30.17,ENE,68,0.4,2.2,91,0.00,,,0.11,WUHU216HW,2013-08-19 12:26:00,
2013-08-19 08:31:00,71.3,68.5,30.17,ENE,68,1.3,2.5,91,0.00,,,0.11,WUHU216HW,2013-08-19 12:31:00,
2013-08-19 08:36:00,71.3,68.5,30.17,ESE,113,0.4,2.5,91,0.00,,,0.11,WUHU216HW,2013-08-19 12:36:00,
2013-08-19 08:41:00,71.6,68.9,30.17,SSE,158,0.7,2.2,91,0.00,,,0.11,WUHU216HW,2013-08-19 12:41:00,
2013-08-19 08:46:00,71.6,68.9,30.17,SE,135,0.4,2.0,91,0.00,,,0.11,WUHU216HW,2013-08-19 12:46:00,
2013-08-19 08:51:00,71.6,68.9,30.17,East,90,2.5,3.6,91,0.00,,,0.11,WUHU216HW,2013-08-19 12:51:00,
2013-08-19 08:56:00,71.6,68.9,30.17,ENE,68,0.4,3.6,91,0.00,,,0.11,WUHU216HW,2013-08-19 12:56:00,
2013-08-19 09:01:00,71.8,69.0,30.17,ENE,68,1.3,3.1,91,0.00,,,0.11,WUHU216HW,2013-08-19 13:01:00,
2013-08-19 09:06:00,72.0,69.2,30.17,ENE,68,0.7,3.4,91,0.00,,,0.11,WUHU216HW,2013-08-19 13:06:00,
2013-08-19 09:11:00,72.4,69.6,30.17,ENE,68,0.4,3.4,91,0.00,,,0.11,WUHU216HW,2013-08-19 13:11:00,
2013-08-19 09:16:00,72.7,69.9,30.17,ENE,68,2.9,3.4,91,0.00,,,0.11,WUHU216HW,2013-08-19 13:16:00,
2013-08-19 09:21:00,73.1,70.3,30.17,ESE,113,1.3,3.4,91,0.00,,,0.11,WUHU216HW,2013-08-19 13:21:00,
2013-08-19 09:26:00,73.1,70.0,30.17,WSW,248,1.3,5.1,90,0.00,,,0.11,WUHU216HW,2013-08-19 13:26:00,
2013-08-19 09:31:00,73.1,70.0,30.17,ENE,68,1.1,5.1,90,0.01,,,0.12,WUHU216HW,2013-08-19 13:31:00,
2013-08-19 09:36:00,73.1,70.0,30.17,ESE,113,3.4,3.8,90,0.01,,,0.12,WUHU216HW,2013-08-19 13:36:00,
2013-08-19 09:41:00,73.4,70.7,30.17,NNE,23,0.4,3.8,91,0.01,,,0.12,WUHU216HW,2013-08-19 13:41:00,
2013-08-19 09:46:00,73.8,70.4,30.17,SE,135,1.1,4.7,89,0.01,,,0.12,WUHU216HW,2013-08-19 13:46:00,
2013-08-19 09:51:00,73.8,70.4,30.17,North,0,2.5,4.7,89,0.01,,,0.12,WUHU216HW,2013-08-19 13:51:00,
2013-08-19 09:56:00,73.8,70.4,30.17,NNW,338,2.0,2.5,89,0.01,,,0.12,WUHU216HW,2013-08-19 13:56:00,
2013-08-19 10:01:00,73.8,70.4,30.17,East,90,1.3,2.5,89,0.01,,,0.12,WUHU216HW,2013-08-19 14:01:00,
2013-08-19 10:06:00,74.0,70.6,30.18,NW,315,0.4,3.8,89,0.01,,,0.12,WUHU216HW,2013-08-19 14:06:00,
2013-08-19 10:11:00,74.3,70.9,30.18,ESE,113,1.3,4.0,89,0.01,,,0.12,WUHU216HW,2013-08-19 14:11:00,
2013-08-19 10:16:00,74.5,70.7,30.18,NNE,23,1.6,4.9,88,0.01,,,0.12,WUHU216HW,2013-08-19 14:16:00,
2013-08-19 10:21:00,74.5,70.7,30.18,ENE,68,0.7,4.9,88,0.01,,,0.12,WUHU216HW,2013-08-19 14:21:00,
2013-08-19 10:26:00,74.5,70.7,30.18,NNW,338,1.8,3.6,88,0.01,,,0.12,WUHU216HW,2013-08-19 14:26:00,
2013-08-19 10:31:00,74.3,70.6,30.18,NNW,338,0.4,3.6,88,0.00,,,0.12,WUHU216HW,2013-08-19 14:31:00,
2013-08-19 10:36:00,74.3,70.9,30.18,ENE,68,0.7,3.1,89,0.00,,,0.12,WUHU216HW,2013-08-19 14:36:00,
2013-08-19 10:41:00,74.5,71.1,30.18,NNE,23,1.8,3.4,89,0.00,,,0.12,WUHU216HW,2013-08-19 14:41:00,
2013-08-19 10:46:00,74.9,71.5,30.18,East,90,0.2,3.4,89,0.00,,,0.12,WUHU216HW,2013-08-19 14:46:00,
2013-08-19 10:51:00,75.2,71.8,30.18,SE,135,0.4,1.8,89,0.00,,,0.12,WUHU216HW,2013-08-19 14:51:00,
2013-08-19 10:56:00,75.2,71.2,30.18,East,90,0.4,1.8,87,0.00,,,0.12,WUHU216HW,2013-08-19 14:56:00,
2013-08-19 11:01:00,75.1,71.3,30.18,ENE,68,1.1,1.8,88,0.00,,,0.12,WUHU216HW,2013-08-19 15:01:00,
2013-08-19 11:06:00,75.2,71.5,30.18,ENE,68,1.1,1.8,88,0.00,,,0.12,WUHU216HW,2013-08-19 15:06:00,
2013-08-19 11:11:00,75.2,71.5,30.18,North,0,0.2,2.5,88,0.00,,,0.12,WUHU216HW,2013-08-19 15:11:00,
2013-08-19 11:16:00,75.4,71.6,30.18,East,90,0.4,3.6,88,0.00,,,0.12,WUHU216HW,2013-08-19 15:16:00,
2013-08-19 11:21:00,75.8,72.0,30.18,ESE,113,0.0,3.6,88,0.00,,,0.12,WUHU216HW,2013-08-19 15:21:00,
2013-08-19 11:26:00,75.6,71.8,30.18,NNW,338,1.3,1.8,88,0.05,,,0.17,WUHU216HW,2013-08-19 15:26:00,
2013-08-19 11:31:00,75.4,71.6,30.18,East,90,0.0,1.8,88,0.05,,,0.17,WUHU216HW,2013-08-19 15:31:00,
2013-08-19 11:36:00,75.6,72.2,30.18,NE,45,0.9,1.3,89,0.05,,,0.17,WUHU216HW,2013-08-19 15:36:00,
2013-08-19 11:41:00,75.8,72.4,30.19,ESE,113,1.8,3.4,89,0.05,,,0.17,WUHU216HW,2013-08-19 15:41:00,
2013-08-19 11:46:00,75.8,72.0,30.18,ENE,68,0.4,3.4,88,0.06,,,0.18,WUHU216HW,2013-08-19 15:46:00,
2013-08-19 11:51:00,76.0,72.2,30.18,NNE,23,0.9,2.7,88,0.09,,,0.21,WUHU216HW,2013-08-19 15:51:00,
2013-08-19 11:56:00,76.1,72.4,30.18,East,90,1.1,3.8,88,0.09,,,0.21,WUHU216HW,2013-08-19 15:56:00,
2013-08-19 12:01:00,76.5,72.7,30.18,SW,225,0.4,3.8,88,0.09,,,0.21,WUHU216HW,2013-08-19 16:01:00,
2013-08-19 12:06:00,76.9,73.1,30.18,ESE,113,1.6,3.4,88,0.09,,,0.21,WUHU216HW,2013-08-19 16:06:00,
2013-08-19 12:11:00,77.2,73.1,30.17,ESE,113,2.0,3.4,87,0.09,,,0.21,WUHU216HW,2013-08-19 16:11:00,
2013-08-19 12:16:00,77.6,73.1,30.18,NNW,338,0.4,3.1,86,0.09,,,0.21,WUHU216HW,2013-08-19 16:16:00,
2013-08-19 12:21:00,77.9,73.8,30.18,NNW,338,0.7,3.1,87,0.09,,,0.21,WUHU216HW,2013-08-19 16:21:00,
2013-08-19 12:26:00,78.5,73.6,30.17,NNE,23,0.7,3.8,85,0.04,,,0.21,WUHU216HW,2013-08-19 16:26:00,
2013-08-19 12:31:00,78.8,73.3,30.17,ESE,113,1.1,3.8,83,0.04,,,0.21,WUHU216HW,2013-08-19 16:31:00,
2013-08-19 12:36:00,79.2,74.0,30.17,WNW,293,0.4,2.5,84,0.04,,,0.21,WUHU216HW,2013-08-19 16:36:00,
2013-08-19 12:41:00,79.9,74.7,30.17,North,0,2.9,2.9,84,0.04,,,0.21,WUHU216HW,2013-08-19 16:41:00,
2013-08-19 12:46:00,79.9,74.4,30.17,East,90,1.1,2.9,83,0.03,,,0.21,WUHU216HW,2013-08-19 16:46:00,
2013-08-19 12:51:00,79.9,74.4,30.17,WNW,293,0.9,2.9,83,0.00,,,0.21,WUHU216HW,2013-08-19 16:51:00,
2013-08-19 12:56:00,79.7,74.2,30.17,NNE,23,0.4,2.7,83,0.00,,,0.21,WUHU216HW,2013-08-19 16:56:00,
2013-08-19 13:01:00,79.6,74.0,30.17,North,0,0.0,2.7,83,0.00,,,0.21,WUHU216HW,2013-08-19 17:01:00,
2013-08-19 13:06:00,79.7,74.2,30.17,NW,315,0.9,2.2,83,0.00,,,0.21,WUHU216HW,2013-08-19 17:06:00,
2013-08-19 13:11:00,79.6,74.0,30.17,NNE,23,2.7,2.7,83,0.00,,,0.21,WUHU216HW,2013-08-19 17:11:00,
2013-08-19 13:16:00,79.7,73.8,30.17,NNW,338,2.0,3.1,82,0.00,,,0.21,WUHU216HW,2013-08-19 17:16:00,
2013-08-19 13:21:00,80.3,74.4,30.17,WNW,293,1.6,3.4,82,0.00,,,0.21,WUHU216HW,2013-08-19 17:21:00,
2013-08-19 13:26:00,80.8,74.5,30.17,NNW,338,2.7,3.4,81,0.00,,,0.21,WUHU216HW,2013-08-19 17:26:00,
2013-08-19 13:31:00,80.8,74.5,30.16,NNE,23,2.2,4.0,81,0.00,,,0.21,WUHU216HW,2013-08-19 17:31:00,
2013-08-19 13:36:00,81.2,74.5,30.16,North,0,2.9,4.0,80,0.00,,,0.21,WUHU216HW,2013-08-19 17:36:00,
2013-08-19 13:41:00,82.1,75.8,30.15,NW,315,2.9,3.4,81,0.00,,,0.21,WUHU216HW,2013-08-19 17:41:00,
2013-08-19 13:46:00,82.6,76.0,30.15,WNW,293,0.7,3.4,80,0.00,,,0.21,WUHU216HW,2013-08-19 17:46:00,
2013-08-19 13:51:00,83.2,75.3,30.15,NNW,338,2.0,4.5,77,0.00,,,0.21,WUHU216HW,2013-08-19 17:51:00,
2013-08-19 13:56:00,83.0,74.6,30.15,NW,315,1.3,4.5,76,0.00,,,0.21,WUHU216HW,2013-08-19 17:56:00,
2013-08-19 14:01:00,82.6,74.3,30.15,ENE,68,1.3,3.4,76,0.00,,,0.21,WUHU216HW,2013-08-19 18:01:00,
2013-08-19 14:06:00,82.4,74.5,30.15,NE,45,0.2,3.4,77,0.00,,,0.21,WUHU216HW,2013-08-19 18:06:00,
2013-08-19 14:11:00,82.4,74.5,30.15,NW,315,1.1,3.4,77,0.00,,,0.21,WUHU216HW,2013-08-19 18:11:00,
2013-08-19 14:16:00,82.4,75.0,30.15,NNE,23,1.1,3.4,78,0.00,,,0.21,WUHU216HW,2013-08-19 18:16:00,
2013-08-19 14:21:00,82.4,75.0,30.15,North,0,1.8,2.7,78,0.00,,,0.21,WUHU216HW,2013-08-19 18:21:00,
2013-08-19 14:26:00,82.4,74.5,30.15,ENE,68,0.4,3.1,77,0.00,,,0.21,WUHU216HW,2013-08-19 18:26:00,
2013-08-19 14:31:00,82.1,74.6,30.14,NNE,23,1.1,3.6,78,0.00,,,0.21,WUHU216HW,2013-08-19 18:31:00,
2013-08-19 14:36:00,82.1,73.8,30.15,North,0,4.0,6.0,76,0.00,,,0.21,WUHU216HW,2013-08-19 18:36:00,
2013-08-19 14:41:00,82.1,74.2,30.14,NNW,338,4.0,6.0,77,0.00,,,0.21,WUHU216HW,2013-08-19 18:41:00,
2013-08-19 14:46:00,82.3,74.3,30.14,ENE,68,1.1,6.7,77,0.00,,,0.21,WUHU216HW,2013-08-19 18:46:00,
2013-08-19 14:51:00,82.4,74.2,30.14,NE,45,1.1,6.7,76,0.00,,,0.21,WUHU216HW,2013-08-19 18:51:00,
2013-08-19 14:56:00,82.4,74.2,30.14,North,0,3.4,4.7,76,0.00,,,0.21,WUHU216HW,2013-08-19 18:56:00,
2013-08-19 15:01:00,82.4,74.2,30.13,ESE,113,2.5,6.3,76,0.00,,,0.21,WUHU216HW,2013-08-19 19:01:00,
2013-08-19 15:06:00,82.3,74.0,30.13,NW,315,1.3,6.3,76,0.00,,,0.21,WUHU216HW,2013-08-19 19:06:00,
2013-08-19 15:11:00,82.3,74.3,30.12,NNW,338,3.6,4.0,77,0.00,,,0.21,WUHU216HW,2013-08-19 19:11:00,
2013-08-19 15:16:00,82.1,74.2,30.13,NW,315,1.8,4.3,77,0.00,,,0.21,WUHU216HW,2013-08-19 19:16:00,
2013-08-19 15:21:00,81.0,73.2,30.12,NNW,338,4.7,5.4,77,0.00,,,0.21,WUHU216HW,2013-08-19 19:21:00,
2013-08-19 15:26:00,80.3,72.8,30.13,NW,315,2.7,5.6,78,0.00,,,0.21,WUHU216HW,2013-08-19 19:26:00,
2013-08-19 15:31:00,79.6,72.6,30.13,NNW,338,1.8,5.6,79,0.00,,,0.21,WUHU216HW,2013-08-19 19:31:00,
2013-08-19 15:36:00,79.7,73.1,30.13,SSE,158,4.0,6.3,80,0.00,,,0.21,WUHU216HW,2013-08-19 19:36:00,
2013-08-19 15:41:00,79.6,72.1,30.13,North,0,3.1,6.3,78,0.00,,,0.21,WUHU216HW,2013-08-19 19:41:00,
2013-08-19 15:46:00,79.7,72.7,30.12,North,0,2.9,4.9,79,0.00,,,0.21,WUHU216HW,2013-08-19 19:46:00,
2013-08-19 15:51:00,80.1,72.6,30.12,West,270,2.9,5.4,78,0.00,,,0.21,WUHU216HW,2013-08-19 19:51:00,
2013-08-19 15:56:00,80.6,73.2,30.13,North,0,4.0,5.8,78,0.00,,,0.21,WUHU216HW,2013-08-19 19:56:00,
2013-08-19 16:01:00,80.3,72.5,30.12,NE,45,1.6,6.7,77,0.00,,,0.21,WUHU216HW,2013-08-19 20:01:00,
2013-08-19 16:06:00,79.9,72.5,30.12,North,0,2.0,6.7,78,0.00,,,0.21,WUHU216HW,2013-08-19 20:06:00,
2013-08-19 16:11:00,79.7,72.3,30.12,NNE,23,1.6,5.4,78,0.00,,,0.21,WUHU216HW,2013-08-19 20:11:00,
2013-08-19 16:16:00,79.7,72.7,30.12,NNW,338,1.8,4.0,79,0.00,,,0.21,WUHU216HW,2013-08-19 20:16:00,
2013-08-19 16:21:00,79.9,72.5,30.12,NNW,338,1.8,4.0,78,0.00,,,0.21,WUHU216HW,2013-08-19 20:21:00,
2013-08-19 16:26:00,79.9,72.5,30.12,ENE,68,4.0,4.0,78,0.00,,,0.21,WUHU216HW,2013-08-19 20:26:00,
2013-08-19 16:31:00,79.9,72.5,30.12,NNW,338,1.6,4.0,78,0.00,,,0.21,WUHU216HW,2013-08-19 20:31:00,
2013-08-19 16:36:00,80.1,73.1,30.12,ENE,68,2.9,4.0,79,0.00,,,0.21,WUHU216HW,2013-08-19 20:36:00,
2013-08-19 16:41:00,80.1,72.6,30.11,North,0,0.9,6.9,78,0.00,,,0.21,WUHU216HW,2013-08-19 20:41:00,
2013-08-19 16:46:00,79.9,72.9,30.11,NE,45,0.2,6.9,79,0.00,,,0.21,WUHU216HW,2013-08-19 20:46:00,
2013-08-19 16:51:00,79.9,72.9,30.11,NW,315,2.2,2.2,79,0.00,,,0.21,WUHU216HW,2013-08-19 20:51:00,
2013-08-19 16:56:00,79.9,72.9,30.11,East,90,2.2,4.7,79,0.00,,,0.21,WUHU216HW,2013-08-19 20:56:00,
2013-08-19 17:01:00,79.6,72.9,30.12,ENE,68,0.4,4.7,80,0.00,,,0.21,WUHU216HW,2013-08-19 21:01:00,
2013-08-19 17:06:00,79.4,72.7,30.11,NNW,338,3.1,3.1,80,0.00,,,0.21,WUHU216HW,2013-08-19 21:06:00,
2013-08-19 17:11:00,79.0,72.7,30.11,NE,45,1.1,3.1,81,0.00,,,0.21,WUHU216HW,2013-08-19 21:11:00,
2013-08-19 17:16:00,79.0,72.7,30.12,ENE,68,0.4,3.1,81,0.00,,,0.21,WUHU216HW,2013-08-19 21:16:00,
2013-08-19 17:21:00,79.2,73.3,30.12,ESE,113,2.5,2.5,82,0.00,,,0.21,WUHU216HW,2013-08-19 21:21:00,
2013-08-19 17:26:00,79.0,72.7,30.12,North,0,1.8,3.1,81,0.00,,,0.21,WUHU216HW,2013-08-19 21:26:00,
2013-08-19 17:31:00,78.8,72.5,30.12,North,0,1.1,3.4,81,0.00,,,0.21,WUHU216HW,2013-08-19 21:31:00,
2013-08-19 17:36:00,78.7,72.7,30.11,NNE,23,0.4,3.4,82,0.00,,,0.21,WUHU216HW,2013-08-19 21:36:00,
2013-08-19 17:41:00,78.7,72.7,30.11,NNW,338,0.7,4.0,82,0.00,,,0.21,WUHU216HW,2013-08-19 21:41:00,
2013-08-19 17:46:00,78.5,72.5,30.12,NW,315,4.3,4.3,82,0.00,,,0.21,WUHU216HW,2013-08-19 21:46:00,
2013-08-19 17:51:00,78.5,72.5,30.12,ESE,113,0.4,4.3,82,0.00,,,0.21,WUHU216HW,2013-08-19 21:51:00,
2013-08-19 17:56:00,78.5,72.5,30.12,North,0,0.7,4.3,82,0.00,,,0.21,WUHU216HW,2013-08-19 21:56:00,
2013-08-19 18:01:00,78.8,72.9,30.12,SE,135,1.1,3.8,82,0.00,,,0.21,WUHU216HW,2013-08-19 22:01:00,
2013-08-19 18:06:00,78.8,72.5,30.13,WSW,248,1.3,4.3,81,0.00,,,0.21,WUHU216HW,2013-08-19 22:06:00,
2013-08-19 18:11:00,78.5,72.2,30.13,NNE,23,1.1,4.3,81,0.00,,,0.21,WUHU216HW,2013-08-19 22:11:00,
2013-08-19 18:16:00,78.5,72.2,30.13,East,90,3.4,5.4,81,0.00,,,0.21,WUHU216HW,2013-08-19 22:16:00,
2013-08-19 18:21:00,78.5,72.2,30.13,NE,45,0.7,5.4,81,0.00,,,0.21,WUHU216HW,2013-08-19 22:21:00,
2013-08-19 18:26:00,78.5,72.5,30.12,SE,135,0.7,4.5,82,0.00,,,0.21,WUHU216HW,2013-08-19 22:26:00,
2013-08-19 18:31:00,78.5,72.5,30.12,SE,135,0.7,3.8,82,0.00,,,0.21,WUHU216HW,2013-08-19 22:31:00,
2013-08-19 18:36:00,78.5,72.5,30.12,East,90,1.6,3.4,82,0.00,,,0.21,WUHU216HW,2013-08-19 22:36:00,
2013-08-19 18:41:00,78.3,72.4,30.12,SE,135,0.2,3.4,82,0.00,,,0.21,WUHU216HW,2013-08-19 22:41:00,
2013-08-19 18:46:00,78.1,72.2,30.12,East,90,1.1,4.0,82,0.00,,,0.21,WUHU216HW,2013-08-19 22:46:00,
2013-08-19 18:51:00,77.9,72.0,30.12,NE,45,0.0,4.0,82,0.00,,,0.21,WUHU216HW,2013-08-19 22:51:00,
2013-08-19 18:56:00,77.8,71.8,30.12,East,90,1.8,4.0,82,0.00,,,0.21,WUHU216HW,2013-08-19 22:56:00,
2013-08-19 19:01:00,77.6,71.6,30.12,ENE,68,0.0,4.0,82,0.00,,,0.21,WUHU216HW,2013-08-19 23:01:00,
2013-08-19 19:06:00,77.4,71.5,30.11,NNW,338,0.2,3.8,82,0.00,,,0.21,WUHU216HW,2013-08-19 23:06:00,
2013-08-19 19:11:00,77.0,71.5,30.11,NE,45,0.4,2.5,83,0.00,,,0.21,WUHU216HW,2013-08-19 23:11:00,
2013-08-19 19:16:00,76.9,71.3,30.12,NNE,23,2.2,2.5,83,0.00,,,0.21,WUHU216HW,2013-08-19 23:16:00,
2013-08-19 19:21:00,76.7,71.5,30.12,NNE,23,0.4,4.5,84,0.00,,,0.21,WUHU216HW,2013-08-19 23:21:00,
2013-08-19 19:26:00,76.7,71.5,30.12,SE,135,1.3,4.5,84,0.00,,,0.21,WUHU216HW,2013-08-19 23:26:00,
2013-08-19 19:31:00,76.7,71.5,30.12,NNE,23,0.2,2.0,84,0.00,,,0.21,WUHU216HW,2013-08-19 23:31:00,
2013-08-19 19:36:00,76.7,71.5,30.13,East,90,0.9,2.9,84,0.00,,,0.21,WUHU216HW,2013-08-19 23:36:00,
2013-08-19 19:41:00,76.7,71.5,30.13,NNE,23,0.9,2.9,84,0.00,,,0.21,WUHU216HW,2013-08-19 23:41:00,
2013-08-19 19:46:00,76.5,71.6,30.13,ENE,68,1.6,2.5,85,0.00,,,0.21,WUHU216HW,2013-08-19 23:46:00,
2013-08-19 19:51:00,76.3,71.5,30.14,ENE,68,0.7,2.7,85,0.00,,,0.21,WUHU216HW,2013-08-19 23:51:00,
2013-08-19 19:56:00,76.1,71.3,30.15,ESE,113,1.6,2.7,85,0.00,,,0.21,WUHU216HW,2013-08-19 23:56:00,
2013-08-19 20:01:00,76.1,71.3,30.15,SE,135,0.2,2.7,85,0.00,,,0.21,WUHU216HW,2013-08-20 00:01:00,
2013-08-19 20:06:00,76.1,71.3,30.15,East,90,0.0,2.7,85,0.00,,,0.21,WUHU216HW,2013-08-20 00:06:00,
2013-08-19 20:11:00,76.1,71.3,30.15,North,0,0.0,1.6,85,0.00,,,0.21,WUHU216HW,2013-08-20 00:11:00,
2013-08-19 20:16:00,76.1,71.3,30.15,NNW,338,1.1,1.1,85,0.00,,,0.21,WUHU216HW,2013-08-20 00:16:00,
2013-08-19 20:21:00,76.0,71.2,30.15,ENE,68,0.2,1.1,85,0.00,,,0.21,WUHU216HW,2013-08-20 00:21:00,
2013-08-19 20:26:00,76.0,71.5,30.15,East,90,1.1,1.3,86,0.00,,,0.21,WUHU216HW,2013-08-20 00:26:00,
2013-08-19 20:31:00,75.8,71.4,30.14,NE,45,1.1,1.3,86,0.00,,,0.21,WUHU216HW,2013-08-20 00:31:00,
2013-08-19 20:36:00,75.8,71.4,30.14,ENE,68,0.4,1.6,86,0.00,,,0.21,WUHU216HW,2013-08-20 00:36:00,
2013-08-19 20:41:00,75.8,71.4,30.14,NNE,23,0.0,2.2,86,0.00,,,0.21,WUHU216HW,2013-08-20 00:41:00,
2013-08-19 20:46:00,75.6,71.5,30.14,East,90,0.0,2.2,87,0.00,,,0.21,WUHU216HW,2013-08-20 00:46:00,
2013-08-19 20:51:00,75.6,71.5,30.14,East,90,0.2,0.9,87,0.00,,,0.21,WUHU216HW,2013-08-20 00:51:00,
2013-08-19 20:56:00,75.6,71.5,30.14,North,0,0.4,1.8,87,0.00,,,0.21,WUHU216HW,2013-08-20 00:56:00,
2013-08-19 21:01:00,75.4,71.4,30.13,North,0,0.4,1.8,87,0.00,,,0.21,WUHU216HW,2013-08-20 01:01:00,
2013-08-19 21:06:00,75.4,71.4,30.14,NE,45,0.4,1.1,87,0.00,,,0.21,WUHU216HW,2013-08-20 01:06:00,
2013-08-19 21:11:00,75.2,71.2,30.14,North,0,0.9,1.8,87,0.00,,,0.21,WUHU216HW,2013-08-20 01:11:00,
2013-08-19 21:16:00,75.2,71.2,30.13,NE,45,0.4,1.8,87,0.00,,,0.21,WUHU216HW,2013-08-20 01:16:00,
2013-08-19 21:21:00,75.2,71.2,30.13,North,0,0.0,1.8,87,0.00,,,0.21,WUHU216HW,2013-08-20 01:21:00,
2013-08-19 21:26:00,75.2,71.5,30.14,NNE,23,0.4,1.8,88,0.00,,,0.21,WUHU216HW,2013-08-20 01:26:00,
2013-08-19 21:31:00,75.2,71.5,30.14,ENE,68,0.4,1.1,88,0.00,,,0.21,WUHU216HW,2013-08-20 01:31:00,
2013-08-19 21:36:00,75.2,71.2,30.14,NNE,23,0.0,2.5,87,0.00,,,0.21,WUHU216HW,2013-08-20 01:36:00,
2013-08-19 21:41:00,75.2,71.5,30.15,NNE,23,0.0,2.5,88,0.00,,,0.21,WUHU216HW,2013-08-20 01:41:00,
2013-08-19 21:46:00,75.2,71.5,30.15,NE,45,0.2,1.1,88,0.00,,,0.21,WUHU216HW,2013-08-20 01:46:00,
2013-08-19 21:51:00,75.2,71.5,30.15,SE,135,1.1,2.0,88,0.00,,,0.21,WUHU216HW,2013-08-20 01:51:00,
2013-08-19 21:56:00,75.2,71.5,30.15,North,0,0.0,2.0,88,0.00,,,0.21,WUHU216HW,2013-08-20 01:56:00,
2013-08-19 22:01:00,75.2,71.5,30.15,NE,45,0.0,2.7,88,0.00,,,0.21,WUHU216HW,2013-08-20 02:01:00,
2013-08-19 22:06:00,75.1,71.3,30.14,North,0,1.3,2.7,88,0.00,,,0.21,WUHU216HW,2013-08-20 02:06:00,
2013-08-19 22:11:00,75.1,71.3,30.15,East,90,0.0,2.5,88,0.00,,,0.21,WUHU216HW,2013-08-20 02:11:00,
2013-08-19 22:16:00,75.1,71.3,30.14,NE,45,1.1,1.6,88,0.00,,,0.21,WUHU216HW,2013-08-20 02:16:00,
2013-08-19 22:21:00,74.9,71.5,30.14,ENE,68,0.4,1.6,89,0.00,,,0.21,WUHU216HW,2013-08-20 02:21:00,
2013-08-19 22:26:00,74.7,71.3,30.14,NNW,338,1.1,1.6,89,0.00,,,0.21,WUHU216HW,2013-08-20 02:26:00,
2013-08-19 22:31:00,74.7,71.3,30.15,NE,45,0.4,1.3,89,0.00,,,0.21,WUHU216HW,2013-08-20 02:31:00,
2013-08-19 22:36:00,74.7,71.3,30.15,East,90,0.4,1.6,89,0.00,,,0.21,WUHU216HW,2013-08-20 02:36:00,
2013-08-19 22:41:00,74.7,71.3,30.15,North,0,0.7,1.6,89,0.00,,,0.21,WUHU216HW,2013-08-20 02:41:00,
2013-08-19 22:46:00,74.5,71.1,30.15,North,0,0.9,1.8,89,0.00,,,0.21,WUHU216HW,2013-08-20 02:46:00,
2013-08-19 22:51:00,74.5,71.1,30.15,North,0,0.2,1.8,89,0.00,,,0.21,WUHU216HW,2013-08-20 02:51:00,
2013-08-19 22:56:00,74.5,71.1,30.15,East,90,0.0,0.9,89,0.00,,,0.21,WUHU216HW,2013-08-20 02:56:00,
2013-08-19 23:01:00,74.5,71.1,30.16,ENE,68,0.4,0.9,89,0.00,,,0.21,WUHU216HW,2013-08-20 03:01:00,
2013-08-19 23:06:00,74.5,71.1,30.16,ENE,68,0.0,0.9,89,0.00,,,0.21,WUHU216HW,2013-08-20 03:06:00,
2013-08-19 23:11:00,74.5,71.1,30.17,ENE,68,0.0,0.4,89,0.00,,,0.21,WUHU216HW,2013-08-20 03:11:00,
2013-08-19 23:16:00,74.7,71.3,30.16,ENE,68,0.0,0.0,89,0.00,,,0.21,WUHU216HW,2013-08-20 03:16:00,
2013-08-19 23:21:00,74.7,71.3,30.16,SE,135,0.2,0.2,89,0.00,,,0.21,WUHU216HW,2013-08-20 03:21:00,
2013-08-19 23:26:00,74.5,71.1,30.16,SE,135,0.0,0.7,89,0.00,,,0.21,WUHU216HW,2013-08-20 03:26:00,
2013-08-19 23:31:00,74.5,71.1,30.16,SE,135,0.2,0.7,89,0.00,,,0.21,WUHU216HW,2013-08-20 03:31:00,
2013-08-19 23:36:00,74.5,71.1,30.16,SE,135,0.7,2.7,89,0.00,,,0.21,WUHU216HW,2013-08-20 03:36:00,
2013-08-19 23:41:00,74.5,71.1,30.16,SSE,158,1.3,2.7,89,0.00,,,0.21,WUHU216HW,2013-08-20 03:41:00,
2013-08-19 23:46:00,74.5,71.1,30.16,ENE,68,0.4,1.3,89,0.00,,,0.21,WUHU216HW,2013-08-20 03:46:00,
2013-08-19 23:51:00,74.5,71.1,30.16,ENE,68,0.4,1.3,89,0.00,,,0.21,WUHU216HW,2013-08-20 03:51:00,
2013-08-19 23:56:00,74.5,71.1,30.16,East,90,1.3,1.8,89,0.00,,,0.21,WUHU216HW,2013-08-20 03:56:00,